Showing default

TELKOMSAT 113BT, 58995

Orbit data source: Space-Track

TELKOMSAT 113BT, 58995 is a payload satellite owned by Telkom (ID) in GEO that was launched on Tue, 20 Feb 2024 UTC via an FALCON 9 launch vehicle from the Air Force Eastern Test Range (AFETR). Payload-class satellites include a variety of spacecraft equipped with specific instruments for various scientific and technological missions. These include communications satellites like Starlink; space stations such as the ISS; scientific satellites like the Hubble; Earth observation satellites from companies like Planet Labs, Umbra, and HawkEye 360; GPS; miniature CubeSats for education and research; and military/defense satellites.

Not visible in the next 10 days
Identifier
58995, 2024-035A
Orbit
GEO
Country
Flag of UnknownUnknown / INDO
Related business
Manufacturer
Thales Alenia
Mission
Operational Commercial Communications
Bus & Motor
SPACEBUS 4000B2, S400
Mass
4,000 kg wet, ~2,500 kg dry
Launch date (UTC)
2024-02-20 (2 years ago)
Launch vehicle
FALCON 9
Launch site
Air Force Eastern Test Range (AFETR)
Object type
Payload
Rocket body
Debris
Shape & HBR
Box + 2 Pan, 15.0 m
Radar Cross Section
48.465 m², Large (>1 m²)

Expand to show TLE details & history
Last TLE update: 20 hours ago

TLE from 20 hours ago
0 TELKOMSAT 113BT
1 58995U 24035A   25353.28971862 -.00000333  00000-0  00000+0 0  9990
2 58995   0.0184 337.6221 0000940 263.2549  64.5071  1.00270323  6781
Epoch: 2025-12-19T06:57Z
TLE epoch observation values (Epoch: 2025-12-19T06:57:11.688Z)
Latitude
-0.0273°
Longitude
112.95091°
Altitude
35,784.772 km
Speed
3.075 km/s
True Right ascension
20h 21m 31s
True Declination
0° 01' 38"
Sunlit
Object was in daylight at epoch
Visualization orbit readout
Latitude
Unknown
Longitude
Unknown
Altitude
Unknown
Speed
Unknown
Apparent Right ascension
Unknown
Apparent Declination
Unknown
Sunlit
N/A
Visualization observer readout
Local Sidereal Time
02:04:05
Azimuth
Unknown
Elevation
Unknown
Doppler factor
Unknown
Orbital elements
Apogee altitude
35,792.039 km
Perigee altitude
35,784.112 km
Semi-major axis
42,166.212 km
Eccentricity
0.00009
Inclination
0.0184°
RAAN
337.6221°
Arg. of periapsis
263.2549°
True anomaly
64.51682°
Mean anomaly
64.5071°
Eccentric anomaly
64.51196°
Mean motion
0.25067 °/min
Orbital period
1,436.17 mins
BSTAR
0
Loading maneuver chart data...
Computing Atmospheric mass density...
Loading historical data...
Loading historical data...
Loading historical data...
Loading historical data...
Loading historical data...
Loading historical data...
Loading historical data...
Other satellites on launch #35 in the year 2024 (2024-02-20 UTC)

Documentation

Showing up to 5 results
|